Total_Precipitation_Accumulation
0.05 0.10 0.16 0.19 0.15 0.13 0.10 0.10 0.12 0.14 0.23 0.29 0.40 0.39 0.31 0.31 0.34 0.28 0.30 0.27 0.25 0.28 0.20 0.18 0.19 0.21 0.22 0.25 0.29 0.32 0.38 0.47 0.53 0.62 0.67 0.72 0.82 0.88 0.95 0.98 0.95 1.04 1.14 1.15
0.06 0.10 0.12 0.13 0.16 0.12 0.08 0.07 0.08 0.11 0.20 0.30 0.35 0.40 0.38 0.31 0.29 0.34 0.39 0.31 0.32 0.35 0.30 0.25 0.23 0.23 0.22 0.27 0.36 0.43 0.52 0.57 0.59 0.66 0.73 0.72 0.77 0.82 0.93 0.99 1.04 1.15 1.21 1.23
0.15 0.15 0.15 0.16 0.15 0.11 0.09 0.10 0.11 0.12 0.18 0.27 0.38 0.42 0.45 0.44 0.37 0.38 0.49 0.48 0.55 0.60 0.49 0.39 0.33 0.32 0.32 0.37 0.44 0.51 0.60 0.72 0.78 0.82 0.85 0.87 0.90 0.93 0.98 1.12 1.21 1.21 1.22 1.24
0.21 0.24 0.28 0.18 0.14 0.13 0.11 0.13 0.14 0.18 0.26 0.32 0.44 0.49 0.54 0.62 0.59 0.52 0.49 0.51 0.59 0.63 0.63 0.58 0.52 0.49 0.51 0.55 0.60 0.71 0.83 0.94 1.04 1.08 1.14 1.21 1.27 1.24 1.28 1.35 1.43 1.43 1.36 1.37
0.32 0.38 0.32 0.24 0.21 0.20 0.21 0.25 0.27 0.36 0.50 0.59 0.59 0.68 0.78 0.71 0.62 0.59 0.58 0.57 0.68 0.66 0.64 0.64 0.73 0.73 0.71 0.74 0.79 0.94 1.09 1.21 1.27 1.32 1.39 1.43 1.44 1.51 1.61 1.73 1.76 1.77 1.72 1.75
0.39 0.44 0.45 0.40 0.36 0.35 0.42 0.68 0.58 0.63 0.65 0.61 0.61 0.81 0.80 0.61 0.55 0.56 0.57 0.64 0.71 0.75 0.73 0.78 0.92 0.93 0.94 1.02 1.09 1.12 1.14 1.23 1.40 1.56 1.66 1.65 1.67 1.79 1.97 2.11 2.09 2.09 2.11 2.11
0.46 0.49 0.45 0.44 0.42 0.49 0.82 1.09 0.89 0.84 0.79 0.74 0.81 0.84 0.82 0.66 0.54 0.53 0.53 0.59 0.67 0.72 0.77 0.80 0.92 1.01 1.15 1.30 1.33 1.32 1.34 1.40 1.50 1.65 1.80 1.82 1.87 1.92 2.05 2.17 2.18 2.14 2.06 1.99
0.69 0.77 0.77 0.52 0.55 0.82 1.02 0.86 0.89 1.00 1.04 1.01 0.95 0.82 0.71 0.62 0.57 0.51 0.49 0.49 0.56 0.69 0.77 0.82 0.95 1.14 1.27 1.38 1.46 1.52 1.58 1.72 1.75 1.81 1.81 1.76 1.87 1.95 2.04 2.14 2.13 2.09 2.11 1.99
0.90 0.96 0.86 0.68 0.74 0.72 0.70 0.80 0.87 0.93 1.06 1.07 0.97 0.99 0.85 0.75 0.70 0.60 0.53 0.52 0.56 0.65 0.75 0.82 0.90 1.05 1.30 1.37 1.41 1.47 1.57 1.65 1.76 1.79 1.81 1.82 1.89 1.98 2.09 2.12 2.08 2.02 2.04 2.04
1.01 1.01 0.91 0.85 0.85 0.78 0.69 0.72 0.78 0.87 0.92 0.94 0.92 1.00 0.95 0.80 0.67 0.60 0.55 0.51 0.54 0.62 0.72 0.77 0.73 0.79 0.93 1.03 1.10 1.18 1.27 1.36 1.42 1.53 1.62 1.77 1.94 1.96 2.02 2.09 2.13 2.12 2.08 2.02
1.13 1.22 1.24 1.15 1.05 0.97 0.86 0.84 0.89 0.92 0.92 0.92 0.80 0.80 0.82 0.72 0.59 0.52 0.47 0.43 0.47 0.57 0.59 0.62 0.66 0.64 0.67 0.75 0.94 1.06 1.10 1.17 1.27 1.39 1.50 1.67 1.86 1.94 1.86 1.88 2.00 1.97 1.88 1.80
1.12 1.15 1.31 1.34 1.16 1.05 0.94 0.95 0.98 0.96 0.89 0.83 0.72 0.64 0.57 0.49 0.43 0.42 0.39 0.42 0.47 0.53 0.53 0.51 0.58 0.59 0.60 0.71 0.90 1.03 1.06 1.08 1.12 1.15 1.26 1.39 1.54 1.63 1.56 1.37 1.39 1.34 1.24 1.13
0.91 0.98 1.07 1.19 1.14 1.08 1.09 1.05 0.96 0.90 0.81 0.76 0.66 0.56 0.47 0.43 0.39 0.39 0.43 0.48 0.54 0.57 0.57 0.56 0.56 0.58 0.62 0.72 0.89 1.06 1.03 0.98 0.99 1.02 1.10 1.15 1.22 1.32 1.36 1.22 1.03 0.94 0.82 0.69
0.92 1.02 1.15 1.26 1.16 1.04 1.08 0.98 0.87 0.89 0.84 0.76 0.66 0.58 0.49 0.46 0.43 0.44 0.50 0.56 0.60 0.60 0.58 0.59 0.59 0.56 0.58 0.68 0.84 1.11 1.18 1.10 1.02 0.99 1.02 1.04 1.08 1.14 1.22 1.26 1.16 0.96 0.73 0.53
0.91 0.95 1.02 1.03 1.00 0.96 0.99 0.99 0.88 0.81 0.72 0.70 0.68 0.58 0.51 0.49 0.47 0.49 0.54 0.61 0.68 0.65 0.59 0.56 0.55 0.54 0.55 0.61 0.71 0.87 1.06 1.08 1.00 0.96 0.97 1.01 1.03 1.09 1.16 1.18 1.23 1.17 0.93 0.65
0.92 0.93 0.92 0.90 0.91 0.86 0.83 0.92 0.93 0.80 0.65 0.65 0.66 0.59 0.56 0.53 0.52 0.52 0.57 0.71 0.89 0.89 0.75 0.68 0.63 0.57 0.56 0.61 0.65 0.71 0.81 0.80 0.74 0.78 0.82 0.90 0.95 0.99 1.03 1.10 1.15 1.15 1.03 0.78
0.94 0.93 0.92 0.91 0.88 0.80 0.75 0.80 0.80 0.71 0.58 0.54 0.63 0.63 0.60 0.63 0.65 0.68 0.72 0.78 0.88 0.89 0.82 0.78 0.70 0.58 0.53 0.56 0.63 0.64 0.68 0.63 0.53 0.61 0.74 0.79 0.84 0.89 0.91 0.96 1.02 1.04 0.94 0.65
0.84 0.85 0.78 0.75 0.76 0.76 0.74 0.72 0.69 0.62 0.55 0.53 0.60 0.68 0.68 0.75 0.86 0.93 0.94 0.94 0.89 0.77 0.70 0.70 0.61 0.52 0.47 0.47 0.52 0.57 0.67 0.67 0.52 0.54 0.67 0.73 0.75 0.85 0.88 0.90 0.92 0.94 0.85 0.60
0.77 0.78 0.67 0.60 0.59 0.63 0.65 0.66 0.62 0.58 0.53 0.53 0.63 0.73 0.74 0.77 0.86 0.95 0.95 1.01 1.06 0.96 0.77 0.62 0.52 0.43 0.41 0.37 0.35 0.44 0.58 0.66 0.56 0.50 0.59 0.59 0.66 0.85 0.89 0.87 0.89 0.89 0.75 0.64
0.67 0.70 0.66 0.57 0.53 0.58 0.59 0.59 0.57 0.56 0.56 0.58 0.66 0.70 0.74 0.79 0.84 0.91 0.91 0.94 1.03 1.00 0.83 0.62 0.43 0.34 0.30 0.26 0.28 0.36 0.48 0.57 0.51 0.43 0.48 0.57 0.68 0.81 0.87 0.85 0.86 0.88 0.77 0.67
0.57 0.60 0.57 0.52 0.53 0.56 0.55 0.50 0.50 0.55 0.57 0.59 0.66 0.71 0.76 0.75 0.75 0.83 0.96 1.00 0.91 0.88 0.82 0.71 0.49 0.34 0.25 0.25 0.27 0.34 0.45 0.51 0.44 0.35 0.36 0.46 0.61 0.73 0.80 0.82 0.83 0.81 0.72 0.65
0.49 0.50 0.48 0.47 0.51 0.55 0.54 0.49 0.46 0.45 0.48 0.56 0.60 0.64 0.72 0.70 0.69 0.69 0.72 0.84 0.85 0.90 0.82 0.73 0.60 0.44 0.31 0.24 0.23 0.29 0.39 0.46 0.42 0.33 0.31 0.39 0.53 0.64 0.71 0.76 0.78 0.76 0.72 0.70
0.51 0.46 0.44 0.47 0.45 0.45 0.46 0.44 0.42 0.40 0.50 0.63 0.66 0.67 0.71 0.67 0.68 0.77 0.72 0.60 0.63 0.76 0.69 0.61 0.60 0.49 0.35 0.27 0.24 0.29 0.41 0.48 0.47 0.36 0.32 0.38 0.45 0.50 0.58 0.62 0.64 0.69 0.73 0.69
0.56 0.47 0.46 0.48 0.43 0.41 0.45 0.43 0.39 0.39 0.49 0.60 0.59 0.60 0.62 0.62 0.63 0.60 0.58 0.56 0.59 0.65 0.57 0.53 0.50 0.45 0.41 0.37 0.37 0.39 0.44 0.48 0.44 0.34 0.31 0.34 0.38 0.41 0.49 0.58 0.66 0.72 0.69 0.62
0.51 0.48 0.47 0.48 0.46 0.43 0.45 0.43 0.40 0.38 0.45 0.58 0.53 0.53 0.53 0.55 0.65 0.64 0.57 0.52 0.55 0.56 0.52 0.51 0.46 0.42 0.40 0.47 0.53 0.51 0.46 0.43 0.39 0.33 0.31 0.32 0.36 0.39 0.47 0.60 0.69 0.70 0.63 0.61
0.52 0.52 0.51 0.48 0.43 0.38 0.38 0.39 0.40 0.38 0.49 0.69 0.64 0.56 0.53 0.51 0.55 0.61 0.65 0.61 0.58 0.59 0.55 0.50 0.45 0.44 0.44 0.53 0.58 0.53 0.46 0.42 0.40 0.37 0.36 0.36 0.41 0.47 0.55 0.64 0.65 0.57 0.51 0.48
0.50 0.46 0.43 0.42 0.41 0.39 0.37 0.39 0.40 0.43 0.54 0.75 0.77 0.59 0.52 0.52 0.55 0.60 0.66 0.68 0.63 0.59 0.54 0.48 0.42 0.40 0.41 0.45 0.46 0.45 0.43 0.42 0.43 0.42 0.39 0.40 0.42 0.47 0.49 0.54 0.53 0.46 0.42 0.40